| time (UTC) | temp C | wind direction | speed KPH | gust KPH | rain 1hr cm | rain 24hr cm | rain mn cm | humidity % | barometer mb |
| 20260902120046 | 13 | 173 | 0.0 | 0.0 | 0.00 | 0.00 | 0.00 | 82 | 1015.7 |
| 20260902114545 | 13 | 174 | 0.0 | 1.6 | 0.00 | 0.00 | 0.00 | 82 | 1015.7 |
| 20260902113047 | 13 | 178 | 0.0 | 3.2 | 0.00 | 0.00 | 0.00 | 81 | 1015.7 |
| 20260902111549 | 13 | 186 | 0.0 | 1.6 | 0.00 | 0.00 | 0.00 | 81 | 1015.6 |
| 20260902110047 | 13 | 207 | 0.0 | 4.8 | 0.00 | 0.00 | 0.00 | 81 | 1015.7 |
| 20260902104552 | 13 | 218 | 0.0 | 0.0 | 0.00 | 0.00 | 0.00 | 81 | 1015.8 |
| 20260902103044 | 14 | 218 | 0.0 | 0.0 | 0.00 | 0.00 | 0.00 | 81 | 1015.9 |
| 20260902101544 | 14 | 218 | 0.0 | 1.6 | 0.00 | 0.00 | 0.00 | 80 | 1016.0 |
| 20260902094544 | 14 | 220 | 0.0 | 1.6 | 0.00 | 0.00 | 0.00 | 80 | 1016.1 |
| 20260902093047 | 14 | 219 | 0.0 | 6.4 | 0.00 | 0.00 | 0.00 | 79 | 1016.1 |
| 20260902091559 | 14 | 245 | 0.0 | 3.2 | 0.00 | 0.00 | 0.00 | 80 | 1016.0 |
| 20260902090059 | 14 | 211 | 0.0 | 3.2 | 0.00 | 0.00 | 0.00 | 80 | 1015.9 |
| 20260902084610 | 15 | 262 | 0.0 | 6.4 | 0.00 | 0.00 | 0.00 | 80 | 1016.0 |
| 20260902083113 | 15 | 217 | 1.6 | 4.8 | 0.00 | 0.00 | 0.00 | 80 | 1016.0 |
| 20260902081513 | 15 | 247 | 1.6 | 8.0 | 0.00 | 0.00 | 0.00 | 81 | 1015.9 |
| 20260902080013 | 15 | 216 | 0.0 | 4.8 | 0.00 | 0.00 | 0.00 | 80 | 1015.8 |
| 20260902074513 | 15 | 233 | 1.6 | 4.8 | 0.00 | 0.00 | 0.00 | 80 | 1015.8 |
| 20260902073013 | 15 | 233 | 1.6 | 4.8 | 0.00 | 0.00 | 0.00 | 79 | 1015.8 |
| 20260902071528 | 15 | 274 | 1.6 | 6.4 | 0.00 | 0.00 | 0.00 | 79 | 1015.7 |
| 20260902070028 | 15 | 201 | 1.6 | 8.0 | 0.00 | 0.00 | 0.00 | 79 | 1015.8 |
| 20260902064530 | 15 | 216 | 1.6 | 6.4 | 0.00 | 0.00 | 0.00 | 80 | 1015.7 |
| 20260902063028 | 15 | 217 | 0.0 | 6.4 | 0.00 | 0.00 | 0.00 | 79 | 1015.9 |
| 20260902061539 | 15 | 205 | 0.0 | 3.2 | 0.00 | 0.00 | 0.00 | 79 | 1015.9 |
| 20260902060043 | 15 | 229 | 0.0 | 3.2 | 0.00 | 0.00 | 0.00 | 79 | 1015.9 |
| 20260902054549 | 16 | 250 | 0.0 | 3.2 | 0.00 | 0.00 | 0.00 | 78 | 1016.0 |
| 20260902053042 | 16 | 269 | 0.0 | 8.0 | 0.00 | 0.00 | 0.00 | 76 | 1015.8 |
| 20260902051535 | 16 | 255 | 0.0 | 8.0 | 0.00 | 0.00 | 0.00 | 73 | 1015.8 |
| 20260902050035 | 17 | 5 | 0.0 | 8.0 | 0.00 | 0.00 | 0.00 | 72 | 1015.8 |
| 20260902044552 | 17 | 342 | 3.2 | 17.7 | 0.00 | 0.00 | 0.00 | 70 | 1015.6 |
| 20260902043051 | 17 | 333 | 3.2 | 11.3 | 0.00 | 0.00 | 0.00 | 68 | 1015.5 |
| 20260902041550 | 17 | 326 | 3.2 | 19.3 | 0.00 | 0.00 | 0.00 | 66 | 1015.4 |
| 20260902040050 | 18 | 319 | 4.8 | 19.3 | 0.00 | 0.00 | 0.00 | 64 | 1015.1 |
| 20260902034551 | 18 | 311 | 3.2 | 16.1 | 0.00 | 0.00 | 0.00 | 63 | 1014.8 |
| 20260902033050 | 18 | 329 | 3.2 | 12.9 | 0.00 | 0.00 | 0.00 | 62 | 1014.6 |
| 20260902031549 | 18 | 319 | 4.8 | 16.1 | 0.00 | 0.00 | 0.00 | 61 | 1014.3 |
| 20260902030050 | 19 | 359 | 8.0 | 16.1 | 0.00 | 0.00 | 0.00 | 59 | 1014.1 |
| 20260902024550 | 20 | 349 | 6.4 | 17.7 | 0.00 | 0.00 | 0.00 | 57 | 1014.0 |
| 20260902023053 | 20 | 323 | 4.8 | 19.3 | 0.00 | 0.00 | 0.00 | 55 | 1013.8 |
| 20260902021549 | 20 | 345 | 3.2 | 12.9 | 0.00 | 0.00 | 0.00 | 54 | 1013.7 |
| 20260902020049 | 21 | 37 | 3.2 | 17.7 | 0.00 | 0.00 | 0.00 | 51 | 1013.5 |
| 20260902014550 | 22 | 8 | 1.6 | 20.9 | 0.00 | 0.00 | 0.00 | 47 | 1013.4 |
| 20260902013049 | 23 | 308 | 1.6 | 17.7 | 0.00 | 0.00 | 0.00 | 45 | 1013.3 |
| 20260902011553 | 23 | 341 | 3.2 | 16.1 | 0.00 | 0.00 | 0.00 | 43 | 1013.3 |
| 20260902004549 | 24 | 305 | 1.6 | 14.5 | 0.00 | 0.00 | 0.00 | 41 | 1013.1 |
| 20260902003048 | 25 | 311 | 3.2 | 14.5 | 0.00 | 0.00 | 0.00 | 40 | 1013.3 |
| 20260902001548 | 25 | 279 | 0.0 | 14.5 | 0.00 | 0.00 | 0.00 | 40 | 1013.2 |
| 20260902000051 | 25 | 310 | 3.2 | 11.3 | 0.00 | 0.00 | 0.00 | 39 | 1013.3 |
| 20260901234549 | 25 | 353 | 3.2 | 12.9 | 0.00 | 0.00 | 0.00 | 39 | 1013.3 |
| 20260901233100 | 25 | 345 | 1.6 | 11.3 | 0.00 | 0.00 | 0.00 | 38 | 1013.4 |
| 20260901231603 | 25 | 25 | 0.0 | 16.1 | 0.00 | 0.00 | 0.00 | 40 | 1013.5 |
| 20260901230104 | 25 | 311 | 1.6 | 17.7 | 0.00 | 0.00 | 0.00 | 40 | 1013.6 |
| 20260901224616 | 25 | 290 | 1.6 | 16.1 | 0.00 | 0.00 | 0.00 | 39 | 1013.8 |
| 20260901223103 | 25 | 299 | 1.6 | 16.1 | 0.00 | 0.00 | 0.00 | 40 | 1013.8 |
| 20260901221604 | 25 | 328 | 0.0 | 14.5 | 0.00 | 0.00 | 0.00 | 40 | 1014.1 |
| 20260901220004 | 25 | 298 | 3.2 | 11.3 | 0.00 | 0.00 | 0.00 | 40 | 1014.1 |
| 20260901214506 | 25 | 227 | 4.8 | 16.1 | 0.00 | 0.00 | 0.00 | 41 | 1014.3 |
| 20260901213002 | 24 | 321 | 0.0 | 12.9 | 0.00 | 0.00 | 0.00 | 44 | 1014.2 |
| 20260901211519 | 24 | 217 | 0.0 | 16.1 | 0.00 | 0.00 | 0.00 | 44 | 1014.3 |
| 20260901210017 | 24 | 263 | 3.2 | 19.3 | 0.00 | 0.00 | 0.00 | 44 | 1014.5 |
| 20260901204517 | 23 | 314 | 1.6 | 14.5 | 0.00 | 0.00 | 0.00 | 47 | 1014.6 |
| 20260901203017 | 23 | 337 | 0.0 | 11.3 | 0.00 | 0.00 | 0.00 | 48 | 1014.7 |
| 20260901201517 | 23 | 345 | 0.0 | 14.5 | 0.00 | 0.00 | 0.00 | 47 | 1014.8 |
| 20260901200018 | 23 | 352 | 1.6 | 11.3 | 0.00 | 0.00 | 0.00 | 48 | 1014.9 |
| 20260901194516 | 22 | 231 | 0.0 | 9.7 | 0.00 | 0.00 | 0.00 | 51 | 1015.1 |
| 20260901193017 | 22 | 348 | 1.6 | 11.3 | 0.00 | 0.00 | 0.00 | 52 | 1015.2 |
| 20260901191539 | 22 | 330 | 1.6 | 20.9 | 0.00 | 0.00 | 0.00 | 52 | 1015.3 |
| 20260901190043 | 21 | 6 | 3.2 | 14.5 | 0.00 | 0.00 | 0.00 | 54 | 1015.4 |
| 20260901184532 | 21 | 334 | 3.2 | 12.9 | 0.00 | 0.00 | 0.00 | 55 | 1015.6 |
| 20260901183055 | 21 | 295 | 0.0 | 11.3 | 0.00 | 0.00 | 0.00 | 55 | 1015.6 |
| 20260901181546 | 20 | 315 | 1.6 | 14.5 | 0.00 | 0.00 | 0.00 | 58 | 1015.5 |
| 20260901180046 | 20 | 345 | 4.8 | 14.5 | 0.00 | 0.00 | 0.00 | 57 | 1015.5 |
| 20260901174546 | 20 | 269 | 6.4 | 20.9 | 0.00 | 0.00 | 0.00 | 58 | 1015.5 |
| 20260901173046 | 20 | 290 | 4.8 | 16.1 | 0.00 | 0.00 | 0.00 | 60 | 1015.4 |
| 20260901171549 | 19 | 17 | 4.8 | 22.5 | 0.00 | 0.00 | 0.00 | 62 | 1015.4 |
| 20260901170046 | 19 | 354 | 4.8 | 19.3 | 0.00 | 0.00 | 0.00 | 63 | 1015.3 |
| 20260901164548 | 19 | 337 | 1.6 | 14.5 | 0.00 | 0.00 | 0.00 | 64 | 1015.2 |
| 20260901163055 | 18 | 333 | 3.2 | 24.1 | 0.00 | 0.00 | 0.00 | 66 | 1015.2 |
| 20260901161546 | 18 | 15 | 4.8 | 17.7 | 0.00 | 0.00 | 0.00 | 68 | 1015.1 |
| 20260901160045 | 17 | 234 | 3.2 | 12.9 | 0.00 | 0.00 | 0.00 | 69 | 1014.9 |
| 20260901154610 | 17 | 264 | 6.4 | 14.5 | 0.00 | 0.00 | 0.00 | 71 | 1014.8 |
| 20260901153049 | 17 | 259 | 3.2 | 19.3 | 0.00 | 0.00 | 0.00 | 71 | 1014.6 |
| 20260901151546 | 16 | 228 | 4.8 | 12.9 | 0.00 | 0.00 | 0.00 | 74 | 1014.3 |
| 20260901150114 | 16 | 179 | 3.2 | 14.5 | 0.00 | 0.00 | 0.00 | 75 | 1014.3 |
| 20260901144600 | 15 | 243 | 3.2 | 11.3 | 0.00 | 0.00 | 0.00 | 77 | 1014.2 |
| 20260901143100 | 15 | 219 | 3.2 | 11.3 | 0.00 | 0.00 | 0.00 | 79 | 1014.0 |
| 20260901141604 | 14 | 279 | 1.6 | 8.0 | 0.00 | 0.00 | 0.00 | 80 | 1013.7 |
| 20260901134600 | 13 | 220 | 3.2 | 11.3 | 0.00 | 0.00 | 0.00 | 82 | 1013.3 |
| 20260901133100 | 13 | 229 | 6.4 | 16.1 | 0.00 | 0.00 | 0.00 | 82 | 1013.2 |
| 20260901131602 | 13 | 230 | 1.6 | 9.7 | 0.00 | 0.00 | 0.00 | 81 | 1013.1 |
| 20260901130005 | 14 | 193 | 4.8 | 12.9 | 0.00 | 0.00 | 0.00 | 81 | 1013.0 |
| 20260901124510 | 14 | 229 | 3.2 | 11.3 | 0.00 | 0.00 | 0.00 | 80 | 1012.8 |
| 20260901123005 | 14 | 222 | 6.4 | 16.1 | 0.00 | 0.00 | 0.00 | 81 | 1012.8 |
| 20260901121506 | 13 | 179 | 3.2 | 9.7 | 0.00 | 0.00 | 0.00 | 81 | 1012.9 |